Weather in Bolen

Russia / Khabarovsk Krai     51°33′47″N   135°52′48″E
temp.,
°C
wind,
m/s
gust,
m/s
humid.,
%
clouds,
%
prec.,
mm/h
press.,
hPa
HPBL,
m
27 february, sat
sat2701:00−18sw12910 0.0 103120
04:00−20sw22900 0.0 103120
07:00−21sw228930 0.0 103120
10:00−16s128016 0.0 1029180
13:00−10sse1372100 0.0 1027400
16:00−11e239298 0.0 1023272
19:00−13e1297100 0.1 102198
22:00−15e1198100 0.1 101749
28 february, sun
sun2801:00−15se0095100 0.0 101420
04:00−16sw1189100 0.0 101120
07:00−17wsw128826 0.0 101220
10:00−12wnw128613 0.0 1012131
13:00−6w696518 0.0 10131719
16:00−9w9156034 0.0 10141205
19:00−14wnw615620 0.0 1018549
22:00−17w817610 0.0 1021511
1 march, mon
mon101:00−20w6136971 0.0 1023368
04:00−23w6137355 0.0 1025307
07:00−24wsw613723 0.0 1026320
10:00−21w813709 0.0 1027539
13:00−17w8116558 0.0 1025971
16:00−17w8146239 0.0 10251184
19:00−21w616650 0.0 1026732
22:00−21w1017580 0.0 1029619
2 march, tue
tue201:00−23wsw816630 0.0 1029526
04:00−25wsw714720 0.0 1030316
07:00−27wsw614730 0.0 1031316
10:00−23wsw914650 0.0 1030773
13:00−18w711620 0.0 10291365
16:00−17w711580 0.0 10281524
19:00−21wnw36660 0.0 102998
22:00−25wsw23720 0.0 103120
3 march, wed
wed301:00−26wsw37790 0.0 1030103
04:00−28wsw33820 0.0 102939
07:00−29sw22830 0.0 102719
10:00−22ssw237842 0.0 1025195
13:00−15sse2372100 0.0 1021458
16:00−13se358370 0.0 1017448
19:00−19ese229871 0.1 101623
22:00−20s239067 0.1 101420